Location: Batang Balui
(2.7000°N, 113.7833°E)
Time: 08:09:35
(UTC+00:00)

Envisat - Pass Details

Date: 17 December 2022
Orbit: 763 x 765 km, 98.2° (Epoch: 07 February)

Event Time Altitude Azimuth Distance (km) Brightness Sun altitude
Exits shadow 20:59:43 20° 239° (WSW) 1,719 4.5 -19.7°
Drops below altitude 10° 21:01:36 10° 223° (SW) 2,296 5.3 -19.3°
Sets 21:04:09 0° 212° (SSW) 3,223 6.2 -18.7°
